Helena, Arkansas, United States (72342)
Lat: 34.53N, Lon: 90.59W
Wx Zone: ARZ058
Local Info
Past Weather Observations for Thursday, September 11, 2014

NOTE: This archive is for the closest National Weather Service station to Helena. Information may differ from the station used for current weather conditions.

Click here for Long-term Archive

Time Weather Temperature Dewpoint Humidity Pressure Winds Precip Visibility
23:55
Overcast
68°F / 20°C 64°F / 18°C 88% 30.09 in
(1019 mb)
N 11.5 mph
(N 19 kph)
- 10SM
23:35
Overcast
68°F / 20°C 64°F / 18°C 88% 30.09 in
(1019 mb)
N 9.2 mph
(N 15 kph)
- 10SM
23:15
Overcast
68°F / 20°C 64°F / 18°C 88% 30.09 in
(1019 mb)
NNE 9.2 mph
(NNE 15 kph)
- 10SM
22:55
Overcast
68°F / 20°C 64°F / 18°C 88% 30.09 in
(1019 mb)
N 10.4 mph
(N 17 kph)
- 10SM
22:35
Overcast
68°F / 20°C 64°F / 18°C 88% 30.09 in
(1019 mb)
NE 8.1 mph
(NE 13 kph)
- 10SM
22:15
Overcast
68°F / 20°C 64°F / 18°C 88% 30.09 in
(1019 mb)
N 10.4 mph
(N 17 kph)
- 10SM
21:55
Overcast
68°F / 20°C 64°F / 18°C 88% 30.06 in
(1018 mb)
NNE 11.5 mph
(NNE 19 kph)
- 10SM
21:35
Overcast
68°F / 20°C 66°F / 19°C 94% 30.06 in
(1018 mb)
NNE 11.5 mph
(NNE 19 kph)
- 7SM
21:15
Overcast
68°F / 20°C 66°F / 19°C 94% 30.06 in
(1018 mb)
N 11.5 mph
(N 19 kph)
- 7SM
20:55
Overcast
Fog And Mist
68°F / 20°C 66°F / 19°C 94% 30.06 in
(1018 mb)
N 9.2 mph
(N 15 kph)
- 4SM
20:35
Overcast
Thunder Storms
68°F / 20°C 66°F / 19°C 94% 30.06 in
(1018 mb)
N 10.4 mph
(N 17 kph)
- 5SM
20:15
Overcast
Fog And Mist
68°F / 20°C 66°F / 19°C 94% 30.06 in
(1018 mb)
N 10.4 mph
(N 17 kph)
- 5SM
19:55
Overcast
68°F / 20°C 66°F / 19°C 94% 30.06 in
(1018 mb)
N 11.5 mph
(N 19 kph)
- 7SM
19:35
Overcast
68°F / 20°C 66°F / 19°C 94% 30.06 in
(1018 mb)
N 11.5 mph
(N 19 kph)
- 7SM
19:15
Overcast
68°F / 20°C 66°F / 19°C 94% 30.04 in
(1017 mb)
N 8.1 mph
(N 13 kph)
- 7SM
18:55
Overcast
68°F / 20°C 66°F / 19°C 94% 30.04 in
(1017 mb)
N 13.8 mph
(N 22 kph)
- 10SM
18:35
Overcast
68°F / 20°C 66°F / 19°C 94% 30.04 in
(1017 mb)
N 16.1 mph
(N 26 kph)
- 7SM
18:15
Overcast
70°F / 21°C 66°F / 19°C 88% 30.01 in
(1016 mb)
N 13.8 mph
(N 22 kph)
- 10SM
17:55
Overcast
70°F / 21°C 68°F / 20°C 94% 30.01 in
(1016 mb)
N 16.1 mph
(N 26 kph)
- 7SM
17:35
Overcast
72°F / 22°C 68°F / 20°C 88% 30.01 in
(1016 mb)
N 17.3 mph
(N 28 kph)
- 10SM
17:15
Overcast
73°F / 23°C 70°F / 21°C 89% 30.01 in
(1016 mb)
NNW 16.1 mph
(NNW 26 kph)
- 10SM
16:55
Overcast
73°F / 23°C 72°F / 22°C 94% 29.98 in
(1015 mb)
N 15 mph
(N 24 kph)
- 10SM
16:35
Overcast
75°F / 24°C 72°F / 22°C 89% 29.98 in
(1015 mb)
N 12.7 mph
(N 20 kph)
- 10SM
16:15
Overcast
75°F / 24°C 72°F / 22°C 89% 29.98 in
(1015 mb)
N 11.5 mph
(N 19 kph)
- 7SM
15:55
Overcast
77°F / 25°C 73°F / 23°C 89% 29.95 in
(1014 mb)
N 17.3 mph
(N 28 kph)
- 7SM
15:35
Overcast
81°F / 27°C 75°F / 24°C 84% 29.95 in
(1014 mb)
NNW 15 mph
(NNW 24 kph)
- 10SM
15:15
Overcast
82°F / 28°C 77°F / 25°C 84% 29.98 in
(1015 mb)
NNW 9.2 mph
(NNW 15 kph)
- 10SM
14:55
Overcast
82°F / 28°C 75°F / 24°C 79% 29.95 in
(1014 mb)
NW 8.1 mph
(NW 13 kph)
- 10SM
14:35
Mostly Cloudy
82°F / 28°C 75°F / 24°C 79% 29.98 in
(1015 mb)
NNW 4.6 mph
(NNW 7 kph)
- 10SM
14:15
Mostly Cloudy
82°F / 28°C 73°F / 23°C 74% 29.98 in
(1015 mb)
NW 3.5 mph
(NW 6 kph)
- 10SM
13:55
Partly Cloudy
82°F / 28°C 75°F / 24°C 79% 29.98 in
(1015 mb)
SSW 3.5 mph
(SSW 6 kph)
- 10SM
13:35
Clear
81°F / 27°C 73°F / 23°C 79% 29.98 in
(1015 mb)
Calm - 10SM
13:15
Clear
81°F / 27°C 73°F / 23°C 79% 29.98 in
(1015 mb)
NW 3.5 mph
(NW 6 kph)
- 10SM
12:55
Partly Cloudy
79°F / 26°C 73°F / 23°C 84% 30.01 in
(1016 mb)
Calm - 10SM
12:35
Partly Cloudy
Rain
79°F / 26°C 73°F / 23°C 84% 30.01 in
(1016 mb)
N 3.5 mph
(N 6 kph)
- 10SM
12:15
Partly Cloudy
79°F / 26°C 73°F / 23°C 84% 30.01 in
(1016 mb)
NE 5.8 mph
(NE 9 kph)
- 10SM
11:55
Mostly Cloudy
Light Rain
79°F / 26°C 73°F / 23°C 84% 30.01 in
(1016 mb)
NNW 5.8 mph
(NNW 9 kph)
0.06 in
(1.52 mm)
10SM
11:35
Mostly Cloudy
Thunder Storms
77°F / 25°C 75°F / 24°C 94% 30.04 in
(1017 mb)
NNE 5.8 mph
(NNE 9 kph)
0.06 in
(1.52 mm)
10SM
11:15
Mostly Cloudy
Thunder Storms
77°F / 25°C 73°F / 23°C 89% 30.01 in
(1016 mb)
NW 9.2 mph
(NW 15 kph)
0.06 in
(1.52 mm)
7SM
10:55
Overcast
Thunder Storms
79°F / 26°C 73°F / 23°C 84% 30.01 in
(1016 mb)
W 16.1 mph
(W 26 kph)
0.13 in
(3.30 mm)
2 1/2SM
10:35
Overcast
81°F / 27°C 75°F / 24°C 84% 30.01 in
(1016 mb)
NW 6.9 mph
(NW 11 kph)
- 10SM
10:15
Mostly Cloudy
Thunder Storms
82°F / 28°C 75°F / 24°C 79% 30.01 in
(1016 mb)
W 4.6 mph
(W 7 kph)
- 10SM
09:55
Mostly Cloudy
Thunder Storms
81°F / 27°C 77°F / 25°C 89% 30.01 in
(1016 mb)
SSW 8.1 mph
(SSW 13 kph)
- 10SM
09:35
Mostly Cloudy
81°F / 27°C 77°F / 25°C 89% 30.01 in
(1016 mb)
SW 4.6 mph
(SW 7 kph)
- 10SM
09:15
Mostly Cloudy
Thunder Storms
79°F / 26°C 77°F / 25°C 94% 30.01 in
(1016 mb)
SSW 3.5 mph
(SSW 6 kph)
- 10SM
08:55
Overcast
Thunder Storms
77°F / 25°C 73°F / 23°C 89% 30.01 in
(1016 mb)
SSE 4.6 mph
(SSE 7 kph)
0.22 in
(5.59 mm)
7SM
08:35
Overcast
77°F / 25°C 73°F / 23°C 89% 29.98 in
(1015 mb)
SW 8.1 mph
(SW 13 kph)
0.21 in
(5.33 mm)
2SM
08:15
Overcast
Thunder Storms
77°F / 25°C 73°F / 23°C 89% 29.98 in
(1015 mb)
SW 4.6 mph
(SW 7 kph)
- 10SM
07:55
Overcast
Thunder Storms
77°F / 25°C 73°F / 23°C 89% 29.98 in
(1015 mb)
NW 4.6 mph
(NW 7 kph)
- 10SM
07:35
Overcast
77°F / 25°C 73°F / 23°C 89% 29.98 in
(1015 mb)
SW 4.6 mph
(SW 7 kph)
- 10SM
07:15
Overcast
Thunder Storms
79°F / 26°C 73°F / 23°C 84% 29.98 in
(1015 mb)
SW 4.6 mph
(SW 7 kph)
- 10SM
06:55
Overcast
Thunder Storms
77°F / 25°C 73°F / 23°C 89% 29.95 in
(1014 mb)
S 5.8 mph
(S 9 kph)
- 10SM
06:35
Mostly Cloudy
Thunder Storms
77°F / 25°C 73°F / 23°C 89% 29.95 in
(1014 mb)
S 6.9 mph
(S 11 kph)
- 10SM
06:15
Overcast
Thunder Storms
77°F / 25°C 73°F / 23°C 89% 29.95 in
(1014 mb)
SSE 9.2 mph
(SSE 15 kph)
- 10SM
05:55
Overcast
Thunder Storms
77°F / 25°C 73°F / 23°C 89% 29.95 in
(1014 mb)
S 8.1 mph
(S 13 kph)
- 10SM
05:35
Overcast
Thunder Storms
77°F / 25°C 72°F / 22°C 83% 29.95 in
(1014 mb)
S 8.1 mph
(S 13 kph)
- 10SM
05:15
Mostly Cloudy
77°F / 25°C 72°F / 22°C 83% 29.95 in
(1014 mb)
SW 9.2 mph
(SW 15 kph)
- 10SM
04:55
Mostly Cloudy
Thunder Storms
77°F / 25°C 72°F / 22°C 83% 29.95 in
(1014 mb)
S 9.2 mph
(S 15 kph)
- 10SM
04:35
Mostly Cloudy
77°F / 25°C 72°F / 22°C 83% 29.95 in
(1014 mb)
S 8.1 mph
(S 13 kph)
- 10SM
04:15
Partly Cloudy
75°F / 24°C 72°F / 22°C 89% 29.95 in
(1014 mb)
S 5.8 mph
(S 9 kph)
- 10SM
03:55
Clear
75°F / 24°C 72°F / 22°C 89% 29.92 in
(1013 mb)
S 5.8 mph
(S 9 kph)
- 10SM
03:35
Clear
77°F / 25°C 72°F / 22°C 83% 29.92 in
(1013 mb)
S 8.1 mph
(S 13 kph)
- 10SM
03:15
Clear
75°F / 24°C 72°F / 22°C 89% 29.92 in
(1013 mb)
S 6.9 mph
(S 11 kph)
- 10SM
02:55
Clear
Thunder Storms
75°F / 24°C 72°F / 22°C 89% 29.92 in
(1013 mb)
S 6.9 mph
(S 11 kph)
- 10SM
02:35
Clear
73°F / 23°C 72°F / 22°C 94% 29.92 in
(1013 mb)
S 5.8 mph
(S 9 kph)
- 10SM
02:15
Clear
73°F / 23°C 70°F / 21°C 89% 29.92 in
(1013 mb)
S 5.8 mph
(S 9 kph)
- 10SM
01:55
Clear
73°F / 23°C 70°F / 21°C 89% 29.92 in
(1013 mb)
SSE 5.8 mph
(SSE 9 kph)
- 10SM
01:35
Clear
73°F / 23°C 70°F / 21°C 89% 29.92 in
(1013 mb)
SSE 4.6 mph
(SSE 7 kph)
- 10SM
01:15
Clear
73°F / 23°C 70°F / 21°C 89% 29.92 in
(1013 mb)
SSE 5.8 mph
(SSE 9 kph)
- 10SM
00:55
Clear
73°F / 23°C 70°F / 21°C 89% 29.89 in
(1012 mb)
SSE 9.2 mph
(SSE 15 kph)
- 10SM
00:35
Clear
77°F / 25°C 70°F / 21°C 79% 29.92 in
(1013 mb)
S 6.9 mph
(S 11 kph)
- 10SM
00:15
Clear
77°F / 25°C 70°F / 21°C 79% 29.92 in
(1013 mb)
S 6.9 mph
(S 11 kph)
- 10SM
Time Weather Temperature Dewpoint Humidity Pressure Winds Precip Visibility


Weather for websites

WeatherForYou.com, LLC is not responsible for any damages or problems caused by this service. Current weather conditions are obtained from the closest station including government and personal stations which may have varying degrees of accuracy. Weather forecasts are derived from the NOAA NDFD. Like all things, this site belongs to Jesus Christ... He just trusts me to maintain it. If you have any questions or comments email webmaster@weatherforyou.com

Copyright © 2014, WeatherForYou.com LLC. All rights reserved.